User: anonymous   Login
Location: Antioch Church
(34.9543°N, 88.5145°W)
Time: 00:52:25
(UTC+00:00)
Language:

Centaur D-1A AC-31 - Orbit

View from above orbital plane
View from above orbital plane
View from above satellite
View from above satellite

Ground track
Ground track

The orbit data is extracted from the following two-line orbital elements,

1  6797U 73058B   20046.83628353 -.00000046 +00000-0 +39043-3 0  9995
2  6797 027.1774 237.9308 7215948 102.8326 339.7186 02.21636564376030
Epoch (UTC): 15 February 2020 20:04:14
Eccentricity: 0.7215948
inclination: 27.1774°
perigee height: 540 km
apogee height: 36401 km
right ascension of ascending node: 237.9308°
argument of perigee: 102.8326°
revolutions per day: 2.21636564
mean anomaly at epoch: 339.7186°
orbit number at epoch: 37603

The dashed part of the orbit path shows where the satellite is in the earth's shadow,  

DLR